| time (UTC) | temp F | wind direction | speed MPH | gust MPH | rain 1hr in | rain 24hr in | rain mn in | humidity % | barometer mb |
| 20260906222204 | 72 | 274 | 6.0 | 8.0 | 0.00 | 0.12 | 0.00 | 60 | 1015.4 |
| 20260906221704 | 72 | 270 | 6.0 | 9.0 | 0.00 | 0.12 | 0.00 | 58 | 1015.3 |
| 20260906221204 | 72 | 257 | 5.0 | 9.0 | 0.00 | 0.13 | 0.00 | 59 | 1015.3 |
| 20260906220204 | 73 | 274 | 5.0 | 9.0 | 0.00 | 0.14 | 0.00 | 58 | 1015.2 |
| 20260906215704 | 73 | 299 | 5.0 | 12.0 | 0.00 | 0.15 | 0.00 | 58 | 1015.2 |
| 20260906215205 | 73 | 283 | 4.0 | 10.0 | 0.00 | 0.16 | 0.00 | 58 | 1015.2 |
| 20260906214204 | 72 | 295 | 6.0 | 10.0 | 0.00 | 0.17 | 0.00 | 59 | 1015.2 |
| 20260906213705 | 72 | 318 | 7.0 | 10.0 | 0.00 | 0.17 | 0.00 | 58 | 1015.3 |
| 20260906213203 | 72 | 316 | 7.0 | 12.0 | 0.00 | 0.17 | 0.00 | 59 | 1015.3 |
| 20260906212705 | 72 | 351 | 7.0 | 10.0 | 0.00 | 0.18 | 0.00 | 59 | 1015.3 |
| 20260906212204 | 71 | 278 | 5.0 | 12.0 | 0.00 | 0.18 | 0.00 | 61 | 1015.4 |
| 20260906211704 | 71 | 319 | 3.0 | 10.0 | 0.00 | 0.18 | 0.00 | 62 | 1015.4 |
| 20260906211204 | 71 | 309 | 5.0 | 13.0 | 0.00 | 0.18 | 0.00 | 61 | 1015.5 |
| 20260906210706 | 71 | 310 | 7.0 | 12.0 | 0.00 | 0.19 | 0.00 | 62 | 1015.5 |
| 20260906210204 | 71 | 320 | 6.0 | 12.0 | 0.00 | 0.19 | 0.00 | 62 | 1015.5 |
| 20260906205704 | 71 | 319 | 5.0 | 10.0 | 0.00 | 0.20 | 0.00 | 62 | 1015.6 |
| 20260906205205 | 71 | 338 | 5.0 | 10.0 | 0.00 | 0.20 | 0.00 | 63 | 1015.7 |
| 20260906204703 | 71 | 303 | 5.0 | 9.0 | 0.00 | 0.20 | 0.00 | 64 | 1015.7 |
| 20260906204203 | 71 | 311 | 7.0 | 9.0 | 0.00 | 0.20 | 0.00 | 63 | 1015.8 |
| 20260906203704 | 70 | 292 | 3.0 | 8.0 | 0.00 | 0.20 | 0.00 | 65 | 1015.8 |
| 20260906203203 | 70 | 355 | 5.0 | 10.0 | 0.00 | 0.20 | 0.00 | 65 | 1015.8 |
| 20260906202704 | 70 | 347 | 3.0 | 9.0 | 0.00 | 0.20 | 0.00 | 65 | 1015.8 |
| 20260906202205 | 70 | 324 | 5.0 | 9.0 | 0.00 | 0.20 | 0.00 | 64 | 1016.0 |
| 20260906201704 | 70 | 358 | 5.0 | 12.0 | 0.00 | 0.20 | 0.00 | 66 | 1016.0 |
| 20260906201204 | 70 | 329 | 4.0 | 10.0 | 0.00 | 0.20 | 0.00 | 64 | 1016.1 |
| 20260906200705 | 70 | 305 | 6.0 | 9.0 | 0.00 | 0.20 | 0.00 | 66 | 1016.1 |
| 20260906200203 | 69 | 327 | 6.0 | 12.0 | 0.00 | 0.20 | 0.00 | 66 | 1016.2 |
| 20260906195704 | 69 | 329 | 6.0 | 10.0 | 0.00 | 0.20 | 0.00 | 67 | 1016.2 |
| 20260906195204 | 69 | 19 | 6.0 | 12.0 | 0.00 | 0.20 | 0.00 | 68 | 1016.3 |
| 20260906194703 | 69 | 38 | 3.0 | 8.0 | 0.00 | 0.20 | 0.00 | 69 | 1016.3 |
| 20260906194203 | 69 | 1 | 5.0 | 9.0 | 0.00 | 0.20 | 0.00 | 69 | 1016.4 |
| 20260906193704 | 69 | 344 | 5.0 | 9.0 | 0.00 | 0.20 | 0.00 | 68 | 1016.5 |
| 20260906193203 | 69 | 290 | 4.0 | 8.0 | 0.00 | 0.20 | 0.00 | 68 | 1016.5 |
| 20260906192205 | 69 | 306 | 6.0 | 8.0 | 0.00 | 0.20 | 0.00 | 67 | 1016.6 |
| 20260906191203 | 69 | 15 | 2.0 | 8.0 | 0.00 | 0.20 | 0.00 | 69 | 1016.6 |
| 20260906190705 | 69 | 325 | 4.0 | 8.0 | 0.00 | 0.20 | 0.00 | 68 | 1016.7 |
| 20260906190205 | 69 | 327 | 3.0 | 8.0 | 0.00 | 0.20 | 0.00 | 68 | 1016.8 |
| 20260906185705 | 69 | 9 | 5.0 | 9.0 | 0.00 | 0.20 | 0.00 | 67 | 1016.9 |
| 20260906185205 | 69 | 18 | 4.0 | 8.0 | 0.00 | 0.20 | 0.00 | 69 | 1016.8 |
| 20260906184704 | 68 | 299 | 4.0 | 8.0 | 0.00 | 0.20 | 0.00 | 69 | 1016.9 |
| 20260906184203 | 68 | 46 | 3.0 | 8.0 | 0.00 | 0.20 | 0.00 | 69 | 1016.9 |
| 20260906183704 | 68 | 4 | 5.0 | 9.0 | 0.00 | 0.20 | 0.00 | 70 | 1016.9 |
| 20260906183204 | 68 | 282 | 2.0 | 9.0 | 0.00 | 0.20 | 0.00 | 69 | 1017.0 |
| 20260906182704 | 68 | 279 | 3.0 | 8.0 | 0.00 | 0.20 | 0.00 | 69 | 1017.0 |
| 20260906181704 | 68 | 352 | 4.0 | 9.0 | 0.00 | 0.20 | 0.00 | 69 | 1017.1 |
| 20260906181204 | 68 | 340 | 5.0 | 8.0 | 0.00 | 0.20 | 0.00 | 69 | 1017.1 |
| 20260906180705 | 68 | 307 | 6.0 | 10.0 | 0.00 | 0.20 | 0.00 | 68 | 1017.1 |
| 20260906180203 | 68 | 320 | 4.0 | 8.0 | 0.00 | 0.20 | 0.00 | 68 | 1017.1 |
| 20260906175705 | 67 | 301 | 1.0 | 8.0 | 0.00 | 0.20 | 0.00 | 69 | 1017.1 |
| 20260906175204 | 67 | 5 | 2.0 | 8.0 | 0.00 | 0.20 | 0.00 | 70 | 1017.1 |
| 20260906174704 | 67 | 318 | 5.0 | 7.0 | 0.00 | 0.20 | 0.00 | 70 | 1017.1 |
| 20260906174205 | 66 | 324 | 2.0 | 5.0 | 0.00 | 0.20 | 0.00 | 70 | 1017.2 |
| 20260906173704 | 66 | 309 | 7.0 | 9.0 | 0.00 | 0.20 | 0.00 | 70 | 1017.2 |
| 20260906173205 | 65 | 246 | 3.0 | 9.0 | 0.00 | 0.20 | 0.00 | 72 | 1017.2 |
| 20260906172703 | 65 | 251 | 2.0 | 8.0 | 0.00 | 0.20 | 0.00 | 73 | 1017.3 |
| 20260906172205 | 65 | 267 | 3.0 | 9.0 | 0.00 | 0.20 | 0.00 | 73 | 1017.3 |
| 20260906171204 | 64 | 293 | 3.0 | 8.0 | 0.00 | 0.20 | 0.00 | 75 | 1017.3 |
| 20260906170704 | 64 | 273 | 6.0 | 9.0 | 0.00 | 0.20 | 0.00 | 75 | 1017.4 |
| 20260906165204 | 63 | 314 | 6.0 | 10.0 | 0.00 | 0.20 | 0.00 | 78 | 1017.6 |
| 20260906164704 | 63 | 268 | 7.0 | 10.0 | 0.00 | 0.20 | 0.00 | 79 | 1017.6 |
| 20260906164204 | 63 | 264 | 3.0 | 7.0 | 0.00 | 0.20 | 0.00 | 79 | 1017.6 |
| 20260906163704 | 63 | 278 | 6.0 | 9.0 | 0.00 | 0.20 | 0.00 | 80 | 1017.7 |
| 20260906163203 | 63 | 264 | 3.0 | 10.0 | 0.00 | 0.20 | 0.00 | 82 | 1017.7 |
| 20260906001705 | 69 | 13 | 3.0 | 6.0 | 0.00 | 0.20 | 0.00 | 63 | 1017.1 |
| 20260906001204 | 69 | 314 | 3.0 | 8.0 | 0.00 | 0.20 | 0.00 | 65 | 1017.0 |
| 20260906000705 | 70 | 295 | 5.0 | 8.0 | 0.00 | 0.20 | 0.00 | 64 | 1016.9 |
| 20260906000205 | 70 | 21 | 2.0 | 6.0 | 0.00 | 0.20 | 0.00 | 65 | 1017.0 |
| 20260905235704 | 69 | 340 | 3.0 | 8.0 | 0.00 | 0.20 | 0.00 | 64 | 1016.9 |
| 20260905235204 | 70 | 351 | 5.0 | 8.0 | 0.00 | 0.20 | 0.00 | 64 | 1016.9 |
| 20260905234705 | 70 | 18 | 5.0 | 8.0 | 0.00 | 0.20 | 0.00 | 65 | 1016.9 |
| 20260905234203 | 69 | 20 | 3.0 | 8.0 | 0.00 | 0.20 | 0.00 | 65 | 1016.9 |
| 20260905233203 | 70 | 24 | 3.0 | 7.0 | 0.00 | 0.20 | 0.00 | 65 | 1016.9 |
| 20260905232703 | 70 | 353 | 6.0 | 9.0 | 0.00 | 0.20 | 0.00 | 66 | 1016.9 |
| 20260905232204 | 70 | 17 | 4.0 | 9.0 | 0.00 | 0.20 | 0.00 | 66 | 1016.8 |
| 20260905231704 | 69 | 20 | 5.0 | 9.0 | 0.00 | 0.20 | 0.00 | 66 | 1016.8 |
| 20260905231205 | 69 | 25 | 5.0 | 9.0 | 0.00 | 0.20 | 0.00 | 66 | 1016.9 |
| 20260905230203 | 70 | 39 | 4.0 | 8.0 | 0.00 | 0.20 | 0.00 | 67 | 1016.9 |
| 20260905225704 | 70 | 56 | 6.0 | 10.0 | 0.00 | 0.20 | 0.00 | 66 | 1016.9 |
| 20260905225204 | 70 | 85 | 3.0 | 8.0 | 0.00 | 0.20 | 0.00 | 67 | 1016.9 |
| 20260905224703 | 70 | 39 | 6.0 | 9.0 | 0.00 | 0.20 | 0.00 | 68 | 1017.0 |
| 20260905224203 | 70 | 332 | 6.0 | 9.0 | 0.00 | 0.20 | 0.00 | 67 | 1017.0 |
| 20260905223204 | 69 | 66 | 2.0 | 9.0 | 0.00 | 0.20 | 0.00 | 67 | 1017.1 |